Year,Month,Day,Hour,Minute,Value (Times are PST for temperature in C)
2014,04,13,00,00,6.40
2014,04,13,00,01,6.40
2014,04,13,00,02,6.40
2014,04,13,00,03,6.40
2014,04,13,00,04,6.40
2014,04,13,00,05,6.40
2014,04,13,00,06,6.40
2014,04,13,00,07,6.40
2014,04,13,00,08,6.40
2014,04,13,00,09,6.40
2014,04,13,00,10,6.40
2014,04,13,00,11,6.50
2014,04,13,00,12,6.50
2014,04,13,00,13,6.60
2014,04,13,00,14,6.60
2014,04,13,00,15,6.70
2014,04,13,00,16,6.70
2014,04,13,00,17,6.70
2014,04,13,00,18,6.80
2014,04,13,00,19,6.80
2014,04,13,00,20,6.80
2014,04,13,00,21,6.70
2014,04,13,00,22,6.70
2014,04,13,00,23,6.70
2014,04,13,00,24,6.60
2014,04,13,00,25,6.60
2014,04,13,00,26,6.50
2014,04,13,00,27,6.50
2014,04,13,00,28,6.50
2014,04,13,00,29,6.40
2014,04,13,00,30,6.40
2014,04,13,00,31,6.40
2014,04,13,00,32,6.40
2014,04,13,00,33,6.30
2014,04,13,00,34,6.30
2014,04,13,00,35,6.30
2014,04,13,00,36,6.30
2014,04,13,00,37,6.30
2014,04,13,00,38,6.30
2014,04,13,00,39,6.30
2014,04,13,00,40,6.30
2014,04,13,00,41,6.30
2014,04,13,00,42,6.30
2014,04,13,00,43,6.30
2014,04,13,00,44,6.30
2014,04,13,00,45,6.30
2014,04,13,00,46,6.30
2014,04,13,00,47,6.30
2014,04,13,00,48,6.40
2014,04,13,00,49,6.40
2014,04,13,00,50,6.40
2014,04,13,00,51,6.40
2014,04,13,00,52,6.50
2014,04,13,00,53,6.50
2014,04,13,00,54,6.40
2014,04,13,00,55,6.40
2014,04,13,00,56,6.40
2014,04,13,00,57,6.40
2014,04,13,00,58,6.40
2014,04,13,00,59,6.30
2014,04,13,01,00,6.30
2014,04,13,01,01,6.30
2014,04,13,01,02,6.30
2014,04,13,01,03,6.30
2014,04,13,01,04,6.20
2014,04,13,01,05,6.20
2014,04,13,01,06,6.20
2014,04,13,01,07,6.20
2014,04,13,01,08,6.10
2014,04,13,01,09,6.10
2014,04,13,01,10,6.10
2014,04,13,01,11,6.10
2014,04,13,01,12,6.00
2014,04,13,01,13,6.00
2014,04,13,01,14,6.00
2014,04,13,01,15,6.00
2014,04,13,01,16,6.00
2014,04,13,01,17,6.00
2014,04,13,01,18,6.10
2014,04,13,01,19,6.10
2014,04,13,01,20,6.10
2014,04,13,01,21,6.10
2014,04,13,01,22,6.20
2014,04,13,01,23,6.20
2014,04,13,01,24,6.20
2014,04,13,01,25,6.20
2014,04,13,01,26,6.20
2014,04,13,01,27,6.30
2014,04,13,01,28,6.30
2014,04,13,01,29,6.30
2014,04,13,01,30,6.40
2014,04,13,01,31,6.40
2014,04,13,01,32,6.40
2014,04,13,01,33,6.40
2014,04,13,01,34,6.50
2014,04,13,01,35,6.50
2014,04,13,01,36,6.40
2014,04,13,01,37,6.40
2014,04,13,01,38,6.40
2014,04,13,01,39,6.40
2014,04,13,01,40,6.40
2014,04,13,01,41,6.40
2014,04,13,01,42,6.40
2014,04,13,01,43,6.40
2014,04,13,01,44,6.40
2014,04,13,01,45,6.40
2014,04,13,01,46,6.40
2014,04,13,01,47,6.40
2014,04,13,01,48,6.40
2014,04,13,01,49,6.40
2014,04,13,01,50,6.40
2014,04,13,01,51,6.40
2014,04,13,01,52,6.30
2014,04,13,01,53,6.30
2014,04,13,01,54,6.20
2014,04,13,01,55,6.20
2014,04,13,01,56,6.20
2014,04,13,01,57,6.10
2014,04,13,01,58,6.10
2014,04,13,01,59,6.00
2014,04,13,02,00,6.00
2014,04,13,02,01,6.00
2014,04,13,02,02,6.00
2014,04,13,02,03,6.00
2014,04,13,02,04,6.00
2014,04,13,02,05,6.00
2014,04,13,02,06,6.10
2014,04,13,02,07,6.10
2014,04,13,02,08,6.10
2014,04,13,02,09,6.10
2014,04,13,02,10,6.20
2014,04,13,02,11,6.20
2014,04,13,02,12,6.20
2014,04,13,02,13,6.20
2014,04,13,02,14,6.20
2014,04,13,02,15,6.20
2014,04,13,02,16,6.30
2014,04,13,02,17,6.30
2014,04,13,02,18,6.30
2014,04,13,02,19,6.30
2014,04,13,02,20,6.30
2014,04,13,02,21,6.40
2014,04,13,02,22,6.40
2014,04,13,02,23,6.40
2014,04,13,02,24,6.40
2014,04,13,02,25,6.40
2014,04,13,02,26,6.50
2014,04,13,02,27,6.50
2014,04,13,02,28,6.50
2014,04,13,02,29,6.50
2014,04,13,02,30,6.60
2014,04,13,02,31,6.60
2014,04,13,02,32,6.50
2014,04,13,02,33,6.50
2014,04,13,02,34,6.50
2014,04,13,02,35,6.60
2014,04,13,02,36,6.60
2014,04,13,02,37,6.50
2014,04,13,02,38,6.50
2014,04,13,02,39,6.50
2014,04,13,02,40,6.50
2014,04,13,02,41,6.50
2014,04,13,02,42,6.50
2014,04,13,02,43,6.50
2014,04,13,02,44,6.50
2014,04,13,02,45,6.40
2014,04,13,02,46,6.40
2014,04,13,02,47,6.40
2014,04,13,02,48,6.40
2014,04,13,02,49,6.40
2014,04,13,02,50,6.40
2014,04,13,02,51,6.40
2014,04,13,02,52,6.40
2014,04,13,02,53,6.40
2014,04,13,02,54,6.40
2014,04,13,02,55,6.40
2014,04,13,02,56,6.40
2014,04,13,02,57,6.40
2014,04,13,02,58,6.40
2014,04,13,02,59,6.40
2014,04,13,03,00,6.40
2014,04,13,03,01,6.40
2014,04,13,03,02,6.40
2014,04,13,03,03,6.40
2014,04,13,03,04,6.40
2014,04,13,03,05,6.40
2014,04,13,03,06,6.40
2014,04,13,03,07,6.40
2014,04,13,03,08,6.40
2014,04,13,03,09,6.40
2014,04,13,03,10,6.30
2014,04,13,03,11,6.30
2014,04,13,03,12,6.30
2014,04,13,03,13,6.30
2014,04,13,03,14,6.30
2014,04,13,03,15,6.40
2014,04,13,03,16,6.30
2014,04,13,03,17,6.40
2014,04,13,03,18,6.40
2014,04,13,03,19,6.40
2014,04,13,03,20,6.40
2014,04,13,03,21,6.40
2014,04,13,03,22,6.40
2014,04,13,03,23,6.40
2014,04,13,03,24,6.40
2014,04,13,03,25,6.40
2014,04,13,03,26,6.40
2014,04,13,03,27,6.40
2014,04,13,03,28,6.40
2014,04,13,03,29,6.40
2014,04,13,03,30,6.40
2014,04,13,03,31,6.40
2014,04,13,03,32,6.40
2014,04,13,03,33,6.40
2014,04,13,03,34,6.40
2014,04,13,03,35,6.40
2014,04,13,03,36,6.40
2014,04,13,03,37,6.40
2014,04,13,03,38,6.30
2014,04,13,03,39,6.30
2014,04,13,03,40,6.30
2014,04,13,03,41,6.30
2014,04,13,03,42,6.30
2014,04,13,03,43,6.30
2014,04,13,03,44,6.30
2014,04,13,03,45,6.30
2014,04,13,03,46,6.30
2014,04,13,03,47,6.30
2014,04,13,03,48,6.30
2014,04,13,03,49,6.30
2014,04,13,03,50,6.30
2014,04,13,03,51,6.30
2014,04,13,03,52,6.40
2014,04,13,03,53,6.40
2014,04,13,03,54,6.40
2014,04,13,03,55,6.40
2014,04,13,03,56,6.40
2014,04,13,03,57,6.40
2014,04,13,03,58,6.40
2014,04,13,03,59,6.40
2014,04,13,04,00,6.40
2014,04,13,04,01,6.40
2014,04,13,04,02,6.40
2014,04,13,04,03,6.40
2014,04,13,04,04,6.40
2014,04,13,04,05,6.50
2014,04,13,04,06,6.50
2014,04,13,04,07,6.60
2014,04,13,04,08,6.60
2014,04,13,04,09,6.70
2014,04,13,04,10,6.70
2014,04,13,04,11,6.70
2014,04,13,04,12,6.70
2014,04,13,04,13,6.70
2014,04,13,04,14,6.70
2014,04,13,04,15,6.70
2014,04,13,04,16,6.70
2014,04,13,04,17,6.70
2014,04,13,04,18,6.70
2014,04,13,04,19,6.70
2014,04,13,04,20,6.60
2014,04,13,04,21,6.60
2014,04,13,04,22,6.60
2014,04,13,04,23,6.60
2014,04,13,04,24,6.50
2014,04,13,04,25,6.50
2014,04,13,04,26,6.40
2014,04,13,04,27,6.40
2014,04,13,04,28,6.30
2014,04,13,04,29,6.20
2014,04,13,04,30,6.20
2014,04,13,04,31,6.20
2014,04,13,04,32,6.20
2014,04,13,04,33,6.10
2014,04,13,04,34,6.10
2014,04,13,04,35,6.10
2014,04,13,04,36,6.20
2014,04,13,04,37,6.20
2014,04,13,04,38,6.20
2014,04,13,04,39,6.30
2014,04,13,04,40,6.30
2014,04,13,04,41,6.30
2014,04,13,04,42,6.20
2014,04,13,04,43,6.20
2014,04,13,04,44,6.20
2014,04,13,04,45,6.10
2014,04,13,04,46,6.10
2014,04,13,04,47,6.10
2014,04,13,04,48,6.20
2014,04,13,04,49,6.20
2014,04,13,04,50,6.20
2014,04,13,04,51,6.20
2014,04,13,04,52,6.20
2014,04,13,04,53,6.20
2014,04,13,04,54,6.20
2014,04,13,04,55,6.20
2014,04,13,04,56,6.30
2014,04,13,04,57,6.30
2014,04,13,04,58,6.30
2014,04,13,04,59,6.30
2014,04,13,05,00,6.30
2014,04,13,05,01,6.30
2014,04,13,05,02,6.30
2014,04,13,05,03,6.30
2014,04,13,05,04,6.30
2014,04,13,05,05,6.30
2014,04,13,05,06,6.30
2014,04,13,05,07,6.20
2014,04,13,05,08,6.20
2014,04,13,05,09,6.20
2014,04,13,05,10,6.20
2014,04,13,05,11,6.20
2014,04,13,05,12,6.20
2014,04,13,05,13,6.20
2014,04,13,05,14,6.20
2014,04,13,05,15,6.20
2014,04,13,05,16,6.20
2014,04,13,05,17,6.20
2014,04,13,05,18,6.20
2014,04,13,05,19,6.20
2014,04,13,05,20,6.20
2014,04,13,05,21,6.20
2014,04,13,05,22,6.20
2014,04,13,05,23,6.20
2014,04,13,05,24,6.20
2014,04,13,05,25,6.20
2014,04,13,05,26,6.20
2014,04,13,05,27,6.20
2014,04,13,05,28,6.20
2014,04,13,05,29,6.10
2014,04,13,05,30,6.10
2014,04,13,05,31,6.10
2014,04,13,05,32,6.10
2014,04,13,05,33,6.10
2014,04,13,05,34,6.00
2014,04,13,05,35,6.00
2014,04,13,05,36,6.00
2014,04,13,05,37,6.00
2014,04,13,05,38,5.90
2014,04,13,05,39,5.90
2014,04,13,05,40,5.80
2014,04,13,05,41,5.80
2014,04,13,05,42,5.80
2014,04,13,05,43,5.80
2014,04,13,05,44,5.80
2014,04,13,05,45,5.80
2014,04,13,05,46,5.80
2014,04,13,05,47,5.80
2014,04,13,05,48,5.80
2014,04,13,05,49,5.80
2014,04,13,05,50,5.80
2014,04,13,05,51,5.80
2014,04,13,05,52,5.80
2014,04,13,05,53,5.80
2014,04,13,05,54,5.80
2014,04,13,05,55,5.80
2014,04,13,05,56,5.80
2014,04,13,05,57,5.90
2014,04,13,05,58,5.90
2014,04,13,05,59,5.90
2014,04,13,06,00,5.90
2014,04,13,06,01,5.90
2014,04,13,06,02,5.90
2014,04,13,06,03,5.90
2014,04,13,06,04,5.80
2014,04,13,06,05,5.80
2014,04,13,06,06,5.80
2014,04,13,06,07,5.80
2014,04,13,06,08,5.80
2014,04,13,06,09,5.90
2014,04,13,06,10,5.80
2014,04,13,06,11,5.80
2014,04,13,06,12,5.80
2014,04,13,06,13,5.80
2014,04,13,06,14,5.80
2014,04,13,06,15,5.90
2014,04,13,06,16,5.90
2014,04,13,06,17,5.90
2014,04,13,06,18,5.80
2014,04,13,06,19,5.80
2014,04,13,06,20,5.80
2014,04,13,06,21,5.80
2014,04,13,06,22,5.80
2014,04,13,06,23,5.80
2014,04,13,06,24,5.80
2014,04,13,06,25,5.80
2014,04,13,06,26,5.70
2014,04,13,06,27,5.70
2014,04,13,06,28,5.70
2014,04,13,06,29,5.70
2014,04,13,06,30,5.70
2014,04,13,06,31,5.70
2014,04,13,06,32,5.70
2014,04,13,06,33,5.60
2014,04,13,06,34,5.60
2014,04,13,06,35,5.60
2014,04,13,06,36,5.60
2014,04,13,06,37,5.60
2014,04,13,06,38,5.60
2014,04,13,06,39,5.60
2014,04,13,06,40,5.60
2014,04,13,06,41,5.60
2014,04,13,06,42,5.60
2014,04,13,06,43,5.60
2014,04,13,06,44,5.60
2014,04,13,06,45,5.70
2014,04,13,06,46,5.70
2014,04,13,06,47,5.70
2014,04,13,06,48,5.70
2014,04,13,06,49,5.70
2014,04,13,06,50,5.70
2014,04,13,06,51,5.70
2014,04,13,06,52,5.60
2014,04,13,06,53,5.60
2014,04,13,06,54,5.60
2014,04,13,06,55,5.50
2014,04,13,06,56,5.50
2014,04,13,06,57,5.50
2014,04,13,06,58,5.40
2014,04,13,06,59,5.40
2014,04,13,07,00,5.40
2014,04,13,07,01,5.40
2014,04,13,07,02,5.40
2014,04,13,07,03,5.40
2014,04,13,07,04,5.40
2014,04,13,07,05,5.40
2014,04,13,07,06,5.40
2014,04,13,07,07,5.40
2014,04,13,07,08,5.30
2014,04,13,07,09,5.30
2014,04,13,07,10,5.40
2014,04,13,07,11,5.40
2014,04,13,07,12,5.50
2014,04,13,07,13,5.60
2014,04,13,07,14,5.60
2014,04,13,07,15,5.70
2014,04,13,07,16,5.80
2014,04,13,07,17,5.90
2014,04,13,07,18,5.90
2014,04,13,07,19,6.00
2014,04,13,07,20,6.00
2014,04,13,07,21,6.10
2014,04,13,07,22,6.10
2014,04,13,07,23,6.10
2014,04,13,07,24,6.20
2014,04,13,07,25,6.20
2014,04,13,07,26,6.20
2014,04,13,07,27,6.30
2014,04,13,07,28,6.30
2014,04,13,07,29,6.30
2014,04,13,07,30,6.40
2014,04,13,07,31,6.40
2014,04,13,07,32,6.40
2014,04,13,07,33,6.50
2014,04,13,07,34,6.50
2014,04,13,07,35,6.60
2014,04,13,07,36,6.60
2014,04,13,07,37,6.70
2014,04,13,07,38,6.70
2014,04,13,07,39,6.80
2014,04,13,07,40,6.80
2014,04,13,07,41,6.80
2014,04,13,07,42,6.90
2014,04,13,07,43,6.90
2014,04,13,07,44,7.00
2014,04,13,07,45,7.00
2014,04,13,07,46,7.10
2014,04,13,07,47,7.10
2014,04,13,07,48,7.20
2014,04,13,07,49,7.20
2014,04,13,07,50,7.20
2014,04,13,07,51,7.20
2014,04,13,07,52,7.20
2014,04,13,07,53,7.30
2014,04,13,07,54,7.30
2014,04,13,07,55,7.30
2014,04,13,07,56,7.40
2014,04,13,07,57,7.40
2014,04,13,07,58,7.50
2014,04,13,07,59,7.50
2014,04,13,08,00,7.50
2014,04,13,08,01,7.60
2014,04,13,08,02,7.60
2014,04,13,08,03,7.60
2014,04,13,08,04,7.60
2014,04,13,08,05,7.60
2014,04,13,08,06,7.70
2014,04,13,08,07,7.70
2014,04,13,08,08,7.70
2014,04,13,08,09,7.70
2014,04,13,08,10,7.80
2014,04,13,08,11,7.80
2014,04,13,08,12,7.80
2014,04,13,08,13,7.80
2014,04,13,08,14,7.80
2014,04,13,08,15,7.80
2014,04,13,08,16,7.90
2014,04,13,08,17,7.90
2014,04,13,08,18,7.90
2014,04,13,08,19,7.90
2014,04,13,08,20,7.90
2014,04,13,08,21,7.90
2014,04,13,08,22,7.90
2014,04,13,08,23,7.90
2014,04,13,08,24,7.90
2014,04,13,08,25,7.90
2014,04,13,08,26,8.00
2014,04,13,08,27,8.00
2014,04,13,08,28,7.90
2014,04,13,08,29,8.00
2014,04,13,08,30,8.00
2014,04,13,08,31,8.10
2014,04,13,08,32,8.10
2014,04,13,08,33,8.10
2014,04,13,08,34,8.20
2014,04,13,08,35,8.20
2014,04,13,08,36,8.20
2014,04,13,08,37,8.30
2014,04,13,08,38,8.30
2014,04,13,08,39,8.30
2014,04,13,08,40,8.20
2014,04,13,08,41,8.20
2014,04,13,08,42,8.20
2014,04,13,08,43,8.20
2014,04,13,08,44,8.20
2014,04,13,08,45,8.20
2014,04,13,08,46,8.20
2014,04,13,08,47,8.20
2014,04,13,08,48,8.20
2014,04,13,08,49,8.20
2014,04,13,08,50,8.20
2014,04,13,08,51,8.30
2014,04,13,08,52,8.40
2014,04,13,08,53,8.50
2014,04,13,08,54,8.60
2014,04,13,08,55,8.60
2014,04,13,08,56,8.70
2014,04,13,08,57,8.80
2014,04,13,08,58,8.80
2014,04,13,08,59,8.80
2014,04,13,09,00,8.80
2014,04,13,09,01,8.80
2014,04,13,09,02,8.90
2014,04,13,09,03,8.90
2014,04,13,09,04,9.00
2014,04,13,09,05,9.10
2014,04,13,09,06,9.20
2014,04,13,09,07,9.20
2014,04,13,09,08,9.20
2014,04,13,09,09,9.20
2014,04,13,09,10,9.30
2014,04,13,09,11,9.30
2014,04,13,09,12,9.30
2014,04,13,09,13,9.40
2014,04,13,09,14,9.40
2014,04,13,09,15,9.50
2014,04,13,09,16,9.50
2014,04,13,09,17,9.60
2014,04,13,09,18,9.60
2014,04,13,09,19,9.70
2014,04,13,09,20,9.70
2014,04,13,09,21,9.70
2014,04,13,09,22,9.80
2014,04,13,09,23,9.80
2014,04,13,09,24,9.90
2014,04,13,09,25,9.90
2014,04,13,09,26,9.90
2014,04,13,09,27,9.90
2014,04,13,09,28,9.90
2014,04,13,09,29,9.90
2014,04,13,09,30,9.90
2014,04,13,09,31,10.00
2014,04,13,09,32,10.00
2014,04,13,09,33,10.10
2014,04,13,09,34,10.20
2014,04,13,09,35,10.40
2014,04,13,09,36,10.60
2014,04,13,09,37,10.70
2014,04,13,09,38,10.80
2014,04,13,09,39,10.80
2014,04,13,09,40,10.80
2014,04,13,09,41,10.80
2014,04,13,09,42,10.80
2014,04,13,09,43,10.80
2014,04,13,09,44,10.70
2014,04,13,09,45,10.60
2014,04,13,09,46,10.60
2014,04,13,09,47,10.60
2014,04,13,09,48,10.60
2014,04,13,09,49,10.60
2014,04,13,09,50,10.70
2014,04,13,09,51,10.70
2014,04,13,09,52,10.80
2014,04,13,09,53,10.90
2014,04,13,09,54,11.00
2014,04,13,09,55,11.10
2014,04,13,09,56,11.20
2014,04,13,09,57,11.30
2014,04,13,09,58,11.50
2014,04,13,09,59,11.60
2014,04,13,10,00,11.80
2014,04,13,10,01,12.00
2014,04,13,10,02,12.20
2014,04,13,10,03,12.40
2014,04,13,10,04,12.60
2014,04,13,10,05,12.70
2014,04,13,10,06,12.80
2014,04,13,10,07,12.80
2014,04,13,10,08,12.90
2014,04,13,10,09,12.90
2014,04,13,10,10,13.00
2014,04,13,10,11,13.10
2014,04,13,10,12,13.20
2014,04,13,10,13,13.30
2014,04,13,10,14,13.30
2014,04,13,10,15,13.40
2014,04,13,10,16,13.30
2014,04,13,10,17,13.30
2014,04,13,10,18,13.30
2014,04,13,10,19,13.40
2014,04,13,10,20,13.50
2014,04,13,10,21,13.50
2014,04,13,10,22,13.40
2014,04,13,10,23,13.30
2014,04,13,10,24,13.30
2014,04,13,10,25,13.30
2014,04,13,10,26,13.30
2014,04,13,10,27,13.30
2014,04,13,10,28,13.30
2014,04,13,10,29,13.40
2014,04,13,10,30,13.40
2014,04,13,10,31,13.50
2014,04,13,10,32,13.50
2014,04,13,10,33,13.60
2014,04,13,10,34,13.60
2014,04,13,10,35,13.60
2014,04,13,10,36,13.60
2014,04,13,10,37,13.60
2014,04,13,10,38,13.60
2014,04,13,10,39,13.60
2014,04,13,10,40,13.50
2014,04,13,10,41,13.40
2014,04,13,10,42,13.40
2014,04,13,10,43,13.50
2014,04,13,10,44,13.50
2014,04,13,10,45,13.50
2014,04,13,10,46,13.60
2014,04,13,10,47,13.60
2014,04,13,10,48,13.70
2014,04,13,10,49,13.80
2014,04,13,10,50,13.70
2014,04,13,10,51,13.60
2014,04,13,10,52,13.50
2014,04,13,10,53,13.40
2014,04,13,10,54,13.40
2014,04,13,10,55,13.40
2014,04,13,10,56,13.50
2014,04,13,10,57,13.50
2014,04,13,10,58,13.60
2014,04,13,10,59,13.50
2014,04,13,11,00,13.50
2014,04,13,11,01,13.40
2014,04,13,11,02,13.40
2014,04,13,11,03,13.50
2014,04,13,11,04,13.40
2014,04,13,11,05,13.50
2014,04,13,11,06,13.50
2014,04,13,11,07,13.60
2014,04,13,11,08,13.60
2014,04,13,11,09,13.70
2014,04,13,11,10,13.80
2014,04,13,11,11,13.80
2014,04,13,11,12,13.70
2014,04,13,11,13,13.70
2014,04,13,11,14,13.70
2014,04,13,11,15,13.60
2014,04,13,11,16,13.60
2014,04,13,11,17,13.50
2014,04,13,11,18,13.50
2014,04,13,11,19,13.50
2014,04,13,11,20,13.40
2014,04,13,11,21,13.40
2014,04,13,11,22,13.40
2014,04,13,11,23,13.50
2014,04,13,11,24,13.60
2014,04,13,11,25,13.60
2014,04,13,11,26,13.50
2014,04,13,11,27,13.60
2014,04,13,11,28,13.60
2014,04,13,11,29,13.70
2014,04,13,11,30,13.70
2014,04,13,11,31,13.80
2014,04,13,11,32,13.80
2014,04,13,11,33,13.80
2014,04,13,11,34,13.70
2014,04,13,11,35,13.70
2014,04,13,11,36,13.70
2014,04,13,11,37,13.70
2014,04,13,11,38,13.80
2014,04,13,11,39,13.80
2014,04,13,11,40,13.80
2014,04,13,11,41,13.90
2014,04,13,11,42,14.00
2014,04,13,11,43,14.00
2014,04,13,11,44,13.90
2014,04,13,11,45,13.90
2014,04,13,11,46,13.90
2014,04,13,11,47,13.90
2014,04,13,11,48,13.90
2014,04,13,11,49,13.90
2014,04,13,11,50,14.00
2014,04,13,11,51,14.10
2014,04,13,11,52,14.10
2014,04,13,11,53,14.20
2014,04,13,11,54,14.20
2014,04,13,11,55,14.20
2014,04,13,11,56,14.20
2014,04,13,11,57,14.30
2014,04,13,11,58,14.40
2014,04,13,11,59,14.60
2014,04,13,12,00,14.60
2014,04,13,12,01,14.70
2014,04,13,12,02,14.60
2014,04,13,12,03,14.60
2014,04,13,12,04,14.50
2014,04,13,12,05,14.50
2014,04,13,12,06,14.50
2014,04,13,12,07,14.50
2014,04,13,12,08,14.40
2014,04,13,12,09,14.30
2014,04,13,12,10,14.30
2014,04,13,12,11,14.40
2014,04,13,12,12,14.30
2014,04,13,12,13,14.30
2014,04,13,12,14,14.20
2014,04,13,12,15,14.20
2014,04,13,12,16,14.20
2014,04,13,12,17,14.20
2014,04,13,12,18,14.20
2014,04,13,12,19,14.30
2014,04,13,12,20,14.30
2014,04,13,12,21,14.40
2014,04,13,12,22,14.50
2014,04,13,12,23,14.60
2014,04,13,12,24,14.70
2014,04,13,12,25,14.80
2014,04,13,12,26,15.00
2014,04,13,12,27,15.00
2014,04,13,12,28,15.00
2014,04,13,12,29,15.00
2014,04,13,12,30,15.00
2014,04,13,12,31,15.00
2014,04,13,12,32,14.80
2014,04,13,12,33,14.70
2014,04,13,12,34,14.70
2014,04,13,12,35,14.60
2014,04,13,12,36,14.60
2014,04,13,12,37,14.60
2014,04,13,12,38,14.60
2014,04,13,12,39,14.70
2014,04,13,12,40,14.60
2014,04,13,12,41,14.70
2014,04,13,12,42,14.80
2014,04,13,12,43,14.80
2014,04,13,12,44,14.90
2014,04,13,12,45,15.00
2014,04,13,12,46,15.00
2014,04,13,12,47,15.00
2014,04,13,12,48,15.10
2014,04,13,12,49,15.10
2014,04,13,12,50,15.20
2014,04,13,12,51,15.20
2014,04,13,12,52,15.20
2014,04,13,12,53,15.00
2014,04,13,12,54,15.00
2014,04,13,12,55,15.00
2014,04,13,12,56,15.00
2014,04,13,12,57,15.00
2014,04,13,12,58,15.00
2014,04,13,12,59,15.00
2014,04,13,13,00,15.00
2014,04,13,13,01,15.00
2014,04,13,13,02,15.00
2014,04,13,13,03,15.00
2014,04,13,13,04,15.00
2014,04,13,13,05,15.00
2014,04,13,13,06,15.00
2014,04,13,13,07,15.10
2014,04,13,13,08,15.20
2014,04,13,13,09,15.20
2014,04,13,13,10,15.30
2014,04,13,13,11,15.30
2014,04,13,13,12,15.30
2014,04,13,13,13,15.30
2014,04,13,13,14,15.30
2014,04,13,13,15,15.30
2014,04,13,13,16,15.30
2014,04,13,13,17,15.40
2014,04,13,13,18,15.50
2014,04,13,13,19,15.50
2014,04,13,13,20,15.40
2014,04,13,13,21,15.40
2014,04,13,13,22,15.30
2014,04,13,13,23,15.30
2014,04,13,13,24,15.20
2014,04,13,13,25,15.10
2014,04,13,13,26,15.00
2014,04,13,13,27,15.20
2014,04,13,13,28,15.30
2014,04,13,13,29,15.30
2014,04,13,13,30,15.30
2014,04,13,13,31,15.40
2014,04,13,13,32,15.50
2014,04,13,13,33,15.60
2014,04,13,13,34,15.60
2014,04,13,13,35,15.60
2014,04,13,13,36,15.60
2014,04,13,13,37,15.50
2014,04,13,13,38,15.40
2014,04,13,13,39,15.40
2014,04,13,13,40,15.50
2014,04,13,13,41,15.50
2014,04,13,13,42,15.50
2014,04,13,13,43,15.50
2014,04,13,13,44,15.40
2014,04,13,13,45,15.50
2014,04,13,13,46,15.50
2014,04,13,13,47,15.60
2014,04,13,13,48,15.70
2014,04,13,13,49,15.70
2014,04,13,13,50,15.70
2014,04,13,13,51,15.60
2014,04,13,13,52,15.50
2014,04,13,13,53,15.40
2014,04,13,13,54,15.50
2014,04,13,13,55,15.60
2014,04,13,13,56,15.70
2014,04,13,13,57,15.70
2014,04,13,13,58,15.70
2014,04,13,13,59,15.60
2014,04,13,14,00,15.60
2014,04,13,14,01,15.70
2014,04,13,14,02,15.70
2014,04,13,14,03,15.60
2014,04,13,14,04,15.60
2014,04,13,14,05,15.70
2014,04,13,14,06,15.80
2014,04,13,14,07,15.80
2014,04,13,14,08,15.80
2014,04,13,14,09,15.90
2014,04,13,14,10,15.90
2014,04,13,14,11,15.90
2014,04,13,14,12,15.90
2014,04,13,14,13,15.90
2014,04,13,14,14,15.80
2014,04,13,14,15,15.80
2014,04,13,14,16,15.80
2014,04,13,14,17,15.80
2014,04,13,14,18,15.80
2014,04,13,14,19,15.80
2014,04,13,14,20,15.80
2014,04,13,14,21,15.90
2014,04,13,14,22,15.90
2014,04,13,14,23,15.90
2014,04,13,14,24,15.90
2014,04,13,14,25,15.80
2014,04,13,14,26,15.80
2014,04,13,14,27,15.90
2014,04,13,14,28,16.00
2014,04,13,14,29,15.90
2014,04,13,14,30,16.00
2014,04,13,14,31,16.00
2014,04,13,14,32,16.00
2014,04,13,14,33,16.00
2014,04,13,14,34,16.10
2014,04,13,14,35,16.10
2014,04,13,14,36,16.20
2014,04,13,14,37,16.20
2014,04,13,14,38,16.20
2014,04,13,14,39,16.10
2014,04,13,14,40,16.10
2014,04,13,14,41,16.10
2014,04,13,14,42,16.10
2014,04,13,14,43,16.10
2014,04,13,14,44,16.20
2014,04,13,14,45,16.20
2014,04,13,14,46,16.20
2014,04,13,14,47,16.30
2014,04,13,14,48,16.30
2014,04,13,14,49,16.40
2014,04,13,14,50,16.40
2014,04,13,14,51,16.40
2014,04,13,14,52,16.40
2014,04,13,14,53,16.40
2014,04,13,14,54,16.30
2014,04,13,14,55,16.30
2014,04,13,14,56,16.20
2014,04,13,14,57,16.20
2014,04,13,14,58,16.20
2014,04,13,14,59,16.20
2014,04,13,15,00,16.20
2014,04,13,15,01,16.20
2014,04,13,15,02,16.20
2014,04,13,15,03,16.20
2014,04,13,15,04,16.30
2014,04,13,15,05,16.30
2014,04,13,15,06,16.40
2014,04,13,15,07,16.40
2014,04,13,15,08,16.50
2014,04,13,15,09,16.50
2014,04,13,15,10,16.60
2014,04,13,15,11,16.70
2014,04,13,15,12,16.70
2014,04,13,15,13,16.80
2014,04,13,15,14,16.80
2014,04,13,15,15,16.80
2014,04,13,15,16,16.70
2014,04,13,15,17,16.70
2014,04,13,15,18,16.60
2014,04,13,15,19,16.60
2014,04,13,15,20,16.60
2014,04,13,15,21,16.60
2014,04,13,15,22,16.60
2014,04,13,15,23,16.60
2014,04,13,15,24,16.50
2014,04,13,15,25,16.40
2014,04,13,15,26,16.40
2014,04,13,15,27,16.50
2014,04,13,15,28,16.50
2014,04,13,15,29,16.60
2014,04,13,15,30,16.70
2014,04,13,15,31,16.70
2014,04,13,15,32,16.70
2014,04,13,15,33,16.70
2014,04,13,15,34,16.70
2014,04,13,15,35,16.70
2014,04,13,15,36,16.70
2014,04,13,15,37,16.70
2014,04,13,15,38,16.70
2014,04,13,15,39,16.80
2014,04,13,15,40,16.80
2014,04,13,15,41,16.80
2014,04,13,15,42,16.90
2014,04,13,15,43,16.80
2014,04,13,15,44,16.90
2014,04,13,15,45,16.90
2014,04,13,15,46,16.90
2014,04,13,15,47,16.90
2014,04,13,15,48,16.80
2014,04,13,15,49,16.80
2014,04,13,15,50,16.90
2014,04,13,15,51,16.90
2014,04,13,15,52,16.90
2014,04,13,15,53,16.90
2014,04,13,15,54,16.80
2014,04,13,15,55,16.80
2014,04,13,15,56,16.70
2014,04,13,15,57,16.60
2014,04,13,15,58,16.60
2014,04,13,15,59,16.60
2014,04,13,16,00,16.60
2014,04,13,16,01,16.60
2014,04,13,16,02,16.70
2014,04,13,16,03,16.70
2014,04,13,16,04,16.80
2014,04,13,16,05,16.90
2014,04,13,16,06,17.00
2014,04,13,16,07,17.20
2014,04,13,16,08,17.20
2014,04,13,16,09,17.30
2014,04,13,16,10,17.40
2014,04,13,16,11,17.40
2014,04,13,16,12,17.40
2014,04,13,16,13,17.40
2014,04,13,16,14,17.40
2014,04,13,16,15,17.30
2014,04,13,16,16,17.30
2014,04,13,16,17,17.20
2014,04,13,16,18,17.20
2014,04,13,16,19,17.20
2014,04,13,16,20,17.10
2014,04,13,16,21,17.10
2014,04,13,16,22,17.10
2014,04,13,16,23,17.20
2014,04,13,16,24,17.20
2014,04,13,16,25,17.20
2014,04,13,16,26,17.20
2014,04,13,16,27,17.20
2014,04,13,16,28,17.20
2014,04,13,16,29,17.10
2014,04,13,16,30,17.10
2014,04,13,16,31,17.10
2014,04,13,16,32,17.10
2014,04,13,16,33,17.00
2014,04,13,16,34,17.00
2014,04,13,16,35,17.00
2014,04,13,16,36,17.00
2014,04,13,16,37,17.00
2014,04,13,16,38,17.00
2014,04,13,16,39,17.00
2014,04,13,16,40,17.00
2014,04,13,16,41,17.00
2014,04,13,16,42,17.00
2014,04,13,16,43,17.00
2014,04,13,16,44,17.10
2014,04,13,16,45,17.10
2014,04,13,16,46,17.10
2014,04,13,16,47,17.10
2014,04,13,16,48,17.20
2014,04,13,16,49,17.20
2014,04,13,16,50,17.20
2014,04,13,16,51,17.10
2014,04,13,16,52,17.10
2014,04,13,16,53,17.00
2014,04,13,16,54,17.00
2014,04,13,16,55,16.90
2014,04,13,16,56,16.80
2014,04,13,16,57,16.80
2014,04,13,16,58,16.70
2014,04,13,16,59,16.70
2014,04,13,17,00,16.80
2014,04,13,17,01,16.80
2014,04,13,17,02,16.90
2014,04,13,17,03,17.00
2014,04,13,17,04,17.10
2014,04,13,17,05,17.20
2014,04,13,17,06,17.20
2014,04,13,17,07,17.30
2014,04,13,17,08,17.40
2014,04,13,17,09,17.40
2014,04,13,17,10,17.40
2014,04,13,17,11,17.40
2014,04,13,17,12,17.40
2014,04,13,17,13,17.40
2014,04,13,17,14,17.40
2014,04,13,17,15,17.40
2014,04,13,17,16,17.40
2014,04,13,17,17,17.50
2014,04,13,17,18,17.50
2014,04,13,17,19,17.60
2014,04,13,17,20,17.60
2014,04,13,17,21,17.60
2014,04,13,17,22,17.60
2014,04,13,17,23,17.50
2014,04,13,17,24,17.50
2014,04,13,17,25,17.50
2014,04,13,17,26,17.60
2014,04,13,17,27,17.60
2014,04,13,17,28,17.60
2014,04,13,17,29,17.70
2014,04,13,17,30,17.70
2014,04,13,17,31,17.80
2014,04,13,17,32,17.90
2014,04,13,17,33,17.90
2014,04,13,17,34,18.00
2014,04,13,17,35,18.10
2014,04,13,17,36,18.00
2014,04,13,17,37,18.00
2014,04,13,17,38,18.00
2014,04,13,17,39,18.00
2014,04,13,17,40,17.90
2014,04,13,17,41,17.90
2014,04,13,17,42,17.90
2014,04,13,17,43,17.90
2014,04,13,17,44,18.00